Pascagoula, MS

12:59 PM CDT on March 30, 2017 (GMT -0500)
Lott International

Weather History for KPQL - October, 2013

Change the Weather History Date:

Sunday, October 27, 2013

  Actual Average Record
Temperature  
Mean Temperature 58 °F -  
Max Temperature 75 °F 76 °F 89 °F (1963)
Min Temperature 44 °F 54 °F 31 °F (1957)
Degree Days  
Heating Degree Days 6    
Growing Degree Days 8 (Base 50)    
Moisture  
Dew Point 53 °F    
Average Humidity 82    
Maximum Humidity 100    
Minimum Humidity 46    
Precipitation  
Precipitation 0.00 in - - ()
Sea Level Pressure  
Sea Level Pressure 30.14 in    
Wind  
Wind Speed 1 mph (SE)    
Max Wind Speed 8 mph    
Max Gust Speed -    
Visibility 9 miles    
Events Rain    
Averages and records for this station are not official NWS values.
T = Trace of Precipitation, MM = Missing Value Source: NWS Daily Summary

Daily Weather History Graph

Daily Weather History Graph

Search for Another Location

Airport or City:

Trip Planner

Search our weather history database for the weather conditions in past years. The results will help you decide how hot, cold, wet, or windy it might be!

Date:

Astronomy

Oct. 27, 2013 Rise Set
Actual Time 7:04 AM CDT 6:10 PM CDT
Civil Twilight 6:40 AM CDT 6:35 PM CDT
Nautical Twilight 6:12 AM CDT 7:03 PM CDT
Astronomical Twilight 5:44 AM CDT 7:31 PM CDT
Moon 12:29 AM CDT (10/27) 1:53 PM CDT (10/27)
Length of Visible Light 11h 54m
Length of Day
11h 05m
Last Quarter, 43% of the Moon is Illuminated
Oct 27
Last Quarter
Nov 3
New
Nov 9
First Quarter
Nov 17
Full
Nov 25
Last Quarter

Hourly Weather History & Observations

Time (CDT) Temp. Dew Point Humidity Pressure Visibility Wind Dir Wind Speed Gust Speed Precip Events Conditions
12:53 AM 46.0 °F 45.0 °F 96% 30.17 in 8.0 mi Calm Calm - N/A   Clear
1:53 AM 45.0 °F 44.1 °F 97% 30.15 in 8.0 mi Calm Calm - N/A   Clear
2:53 AM 45.0 °F 44.1 °F 97% 30.13 in 9.0 mi Calm Calm - N/A   Clear
3:53 AM 45.0 °F 44.1 °F 97% 30.13 in 10.0 mi Calm Calm - N/A   Clear
4:53 AM 45.0 °F 43.0 °F 93% 30.14 in 8.0 mi Calm Calm - N/A   Clear
5:53 AM 44.1 °F 43.0 °F 96% 30.14 in 8.0 mi Calm Calm - N/A   Clear
6:53 AM 44.1 °F 43.0 °F 96% 30.14 in 9.0 mi Calm Calm - N/A   Clear
7:53 AM 48.9 °F 46.9 °F 93% 30.15 in 10.0 mi Calm Calm - N/A   Clear
8:53 AM 59.0 °F 51.1 °F 75% 30.17 in 10.0 mi Calm Calm - N/A   Clear
9:53 AM 68.0 °F 48.9 °F 50% 30.18 in 10.0 mi ESE 4.6 mph - N/A   Clear
10:53 AM 72.0 °F 50.0 °F 46% 30.18 in 10.0 mi ESE 8.1 mph - N/A   Clear
11:53 AM 73.9 °F 54.0 °F 50% 30.18 in 10.0 mi Variable 4.6 mph - N/A   Clear
12:53 PM 73.0 °F 55.9 °F 55% 30.16 in 10.0 mi South 5.8 mph - N/A   Clear
1:53 PM 73.0 °F 57.0 °F 57% 30.12 in 10.0 mi SE 5.8 mph - N/A   Clear
2:53 PM 73.0 °F 57.9 °F 59% 30.13 in 10.0 mi Variable 5.8 mph - N/A   Clear
3:53 PM 72.0 °F 57.9 °F 61% 30.11 in 10.0 mi SSE 5.8 mph - N/A   Clear
4:53 PM 71.1 °F 60.1 °F 68% 30.11 in 10.0 mi Calm Calm - N/A   Clear
5:53 PM 66.9 °F 61.0 °F 81% 30.12 in 10.0 mi Calm Calm - N/A   Scattered Clouds
6:53 PM 64.0 °F 62.1 °F 93% 30.11 in 10.0 mi Calm Calm - 0.00 in Rain Light Rain
7:53 PM 62.1 °F 61.0 °F 96% 30.12 in 10.0 mi Calm Calm - 0.00 in   Mostly Cloudy
8:53 PM 61.0 °F 60.1 °F 97% 30.13 in 10.0 mi Calm Calm - N/A   Scattered Clouds
9:53 PM 62.1 °F 60.1 °F 93% 30.13 in 10.0 mi Calm Calm - N/A   Mostly Cloudy
10:53 PM 57.9 °F 57.0 °F 97% 30.14 in 7.0 mi Calm Calm - N/A   Clear
11:35 PM 55.4 °F 55.4 °F 100% 30.13 in 1.8 mi Calm Calm - N/A   Clear
11:53 PM 57.0 °F 55.9 °F 96% 30.13 in 0.8 mi Calm Calm - N/A   Clear